Theta_e
285 285 284 284 283 282 281 281 281 280 280 280 280 280 280 279 279 279 278 278 278 279
284 284 284 283 282 282 281 282 280 280 279 279 279 279 279 278 277 277 277 277 277 277
283 284 283 283 281 281 280 280 279 279 279 278 278 278 278 277 277 276 276 277 276 276
283 283 282 282 281 280 280 279 279 279 278 278 277 277 276 276 276 276 276 276 276 276
282 282 281 281 280 279 279 279 278 278 278 277 277 277 276 276 276 275 276 276 276 275
281 281 280 280 279 279 278 278 277 277 277 277 276 276 276 276 276 276 276 276 275 275
280 280 280 279 279 278 278 277 277 276 276 276 276 276 276 276 276 276 276 276 276 275
281 280 279 279 279 278 278 277 276 276 276 275 275 276 275 275 275 275 275 275 276 275
281 281 280 280 279 278 277 277 276 275 274 274 276 279 280 277 275 276 275 274 275 275
282 281 280 280 279 277 277 275 274 274 274 273 274 280 280 280 276 275 274 274 274 275
282 281 279 278 278 277 276 274 274 273 273 273 273 279 280 280 276 274 274 274 274 274
282 281 279 278 277 276 275 273 273 272 271 271 271 279 280 279 274 274 273 274 274 274
282 281 279 279 276 273 274 274 273 273 271 271 269 277 279 279 274 269 272 272 274 276
280 280 279 277 274 271 272 272 270 271 271 269 270 269 278 279 275 272 269 270 271 273
Wind_Speed
10 8 8 8 8 6 6 6 6 6 6 6 6 6 6 5 5 5 5 6 4 2
8 9 9 9 7 6 6 6 7 7 7 6 6 6 6 5 5 5 3 4 4 2
10 9 9 9 9 8 6 6 7 7 6 6 6 6 7 5 4 5 2 2 3 2
9 9 9 9 8 8 7 7 7 6 7 7 6 6 6 6 5 5 3 2 2 1
9 9 9 9 9 8 8 6 7 6 6 6 6 6 6 5 4 4 2 1 1 3
10 10 9 9 9 8 8 8 7 6 7 6 6 6 4 5 4 3 3 3 4 4
12 11 10 9 9 9 8 8 7 7 7 6 6 6 5 5 3 3 3 4 5 5
10 8 8 9 8 7 7 7 7 7 6 6 5 4 5 5 4 4 5 5 5 5
10 10 10 10 9 9 8 7 7 7 7 6 4 10 10 7 4 4 4 5 5 5
11 12 11 10 10 10 10 6 7 7 7 7 6 11 12 12 5 5 6 6 5 6
13 12 9 11 11 9 7 9 7 7 7 6 6 13 14 14 5 5 7 7 7 7
12 12 12 12 12 9 8 6 7 4 7 7 6 14 14 12 5 7 8 7 6 6
13 13 14 13 11 5 5 8 6 7 8 8 7 15 15 12 3 5 6 5 7 12
11 12 11 9 6 6 6 5 7 8 6 7 7 8 16 16 7 6 5 6 6 6
Wind_Direction
145 146 143 145 143 136 136 135 127 114 117 113 111 105 98 92 95 93 81 83 64 69
139 144 148 141 132 135 126 131 128 133 127 117 111 112 109 95 95 95 88 91 74 65
149 145 140 133 137 141 140 132 139 140 133 125 121 118 112 108 107 105 80 100 70 48
148 141 135 138 144 149 137 144 150 147 144 142 127 120 113 118 126 112 122 74 64 335
145 144 147 153 154 148 147 152 158 157 146 137 132 125 131 144 138 148 152 214 266 262
157 157 163 161 156 153 149 157 164 160 148 148 143 138 148 164 174 174 207 231 245 264
169 168 167 160 163 161 161 158 169 164 152 159 151 152 170 183 188 215 232 246 251 257
169 160 157 164 169 159 161 173 172 152 157 167 161 169 185 189 197 223 246 252 253 249
167 168 174 171 169 168 170 174 171 161 170 177 182 195 201 185 199 222 241 257 256 251
173 178 183 172 173 179 181 169 176 171 179 192 195 205 211 214 201 216 231 241 254 255
179 184 169 174 184 180 172 187 175 190 193 192 206 213 218 222 206 226 238 243 246 251
183 176 178 188 187 187 178 181 188 176 191 201 207 218 222 222 195 226 239 243 247 243
180 184 185 190 185 173 181 194 188 202 199 203 207 219 226 230 193 226 241 245 254 252
176 183 187 177 162 166 176 167 194 208 201 206 198 216 231 235 225 228 231 230 241 241